Torna al catalogo

FENGYUN 1C DEB

AttivoSSO
NORAD 30273·DEBRIS·🇨🇳 China

Lanciato May 10, 1999 da Taiyuan Satellite Launch Center

Loading…

Prossimi Passaggi (prossime 24 ore)

TLE

AggiornatoSource: Space-Track

Epoca: Sep 14, 2026, 07:44 UTC

1 30273U 99025YJ  26257.32286809  .00000867  00000-0  57583-3 0  9992
2 30273  98.8319 268.7757 0060664 200.1560 172.4990 14.03082820  3949

Traccia FENGYUN 1C DEB in tempo reale con AllMySat

Download on the App Store